Location: Biaches
(49.9250°N, 2.9070°E)
Time: 21:02:36
(UTC+00:00)

Daily predictions for brighter satellites

Satellite Brightness Start Highest point End
(mag) Time Altitude Azimuth Time Altitude Azimuth Time Altitude Azimuth
CORIOLIS 4.2 17:08:42 10° SSE 17:14:03 88° ENE 17:19:27 10° NNW
Cosmos 2322 Rocket 3.9 17:12:18 10° ESE 17:14:10 12° E 17:16:02 10° ENE
Cosmos 2150 Rocket 4.1 17:09:03 10° SSW 17:14:27 72° ESE 17:19:49 10° NNE
Cosmos 1703 3.7 17:11:17 10° N 17:15:02 41° ENE 17:18:44 10° SE
Lacrosse 4 Rocket 2.8 17:15:23 10° NNW 17:18:46 22° NE 17:22:11 10° E
Cosmos 1174 3.1 17:17:02 10° SSW 17:20:12 73° SE 17:23:12 10° NE
CZ-4C R/B 4.5 17:18:12 10° NE 17:20:29 17° E 17:22:42 10° SE
Cosmos 405 Rocket 3.0 17:24:47 10° N 17:28:39 50° ENE 17:32:34 10° SSE
PSLV R/B 4.2 17:26:18 10° S 17:30:20 73° WSW 17:34:19 10° NNW
X-37B 1.8 17:27:49 10° WSW 17:30:44 33° S 17:33:39 10° ESE
Cosmos 489 Rocket 4.5 17:24:56 10° NNW 17:31:08 66° ENE 17:37:18 10° SE
Cosmos 1000 Rocket 4.5 17:26:23 10° N 17:32:32 68° ENE 17:38:43 10° SSE
Iridium 4 Rocket 3.8 17:29:57 10° NNE 17:34:06 35° E 17:38:33 10° SE
CZ-4B R/B 3.3 17:28:45 10° SSE 17:34:23 73° ENE 17:40:03 10° NNW
Cosmos 1726 4.5 17:31:42 10° SW 17:34:47 26° WNW 17:37:54 10° NNW
Cosmos 1626 Rocket 4.5 17:31:07 10° NNE 17:34:48 26° ENE 17:38:27 10° SE
H-2A R/B 2.1 17:31:17 10° SSE 17:36:40 76° ENE 17:42:09 10° NNW
MOS 1-B Rocket 4.5 17:31:54 10° NNE 17:38:20 42° E 17:43:57 10° SSE
PAYLOAD B 4.5 17:33:54 10° SSE 17:39:26 77° WSW 17:45:02 10° NNW
Cosmos 389 Rocket 2.8 17:40:44 10° SSW 17:44:06 66° WNW 17:47:32 10° N
ARGOS 3.2 17:39:01 10° SSE 17:44:17 57° ENE 17:49:37 10° N
Cosmos 2263 Rocket 2.2 17:39:26 10° NNW 17:45:04 89° ENE 17:50:38 10° SSE
Cosmos 1328 4.0 17:41:22 10° N 17:45:19 49° ENE 17:49:14 10° SSE
Cosmos 2227 4.2 17:39:56 10° NNW 17:45:44 74° ENE 17:51:29 10° SE
Cosmos 2369 3.9 17:41:12 10° SSW 17:46:52 77° WNW 17:52:36 10° NNE
Cosmos 724 4.4 17:40:53 10° NW 17:46:54 86° SW 17:52:45 10° SE
Cosmos 1980 Rocket 2.2 17:43:13 10° SSW 17:48:53 88° SE 17:54:37 10° NNE
SKYMED 2 3.6 17:45:20 10° NNE 17:49:38 55° E 17:53:53 10° S
Spot 2 4.3 17:45:47 10° SE 17:49:44 46° ENE 17:53:55 10° N
Cosmos 371 Rocket 3.9 17:48:10 10° SSE 17:52:33 35° ESE 17:56:58 10° NE
Cosmos 1953 2.3 17:48:35 10° S 17:52:38 88° ESE 17:56:44 10° N
Cosmos 1821 Rocket 4.1 17:47:10 10° S 17:53:34 88° E 17:59:58 10° N
USA 215 3.5 17:47:20 10° ENE 17:53:51 71° NNW 18:00:22 10° WSW
CZ-2D R/B 4.0 17:51:43 10° S 17:55:31 56° W 17:59:21 10° NNW
SJ-11-01 4.2 17:50:54 10° SSE 17:55:34 71° ENE 18:00:17 10° N
YAOGAN 1 2.9 17:54:57 10° SE 17:59:04 44° ENE 18:03:11 10° N
Cosmos 1269 Rocket 4.1 17:54:04 10° NNW 17:59:24 85° WSW 18:04:41 10° SSE
Cosmos 1455 Rocket 3.0 17:55:57 10° S 18:00:21 76° E 18:04:50 10° NNE
H-2A R/B 2.5 17:57:44 10° SSE 18:01:57 57° ENE 18:06:03 10° N
Cosmos 1125 Rocket 4.2 17:56:53 10° SW 18:02:03 56° WNW 18:07:13 10° NNE
CZ-2C R/B 2.7 17:56:34 10° NNE 18:02:09 62° E 18:07:38 10° S
H-2A R/B 3.0 17:59:01 10° NE 18:02:20 23° E 18:05:38 10° SSE
SL-8 R/B 4.1 17:58:17 10° SW 18:02:52 47° SSE 18:05:47 21° E
Cosmos 1892 3.8 17:59:57 10° NNE 18:03:01 23° ENE 18:03:26 22° E
Cosmos 1697 Rocket 3.9 18:00:05 10° WSW 18:05:28 43° NW 18:10:52 10° NNE
CZ-4 R/B 1.5 18:04:13 10° SSE 18:08:06 52° ENE 18:12:07 10° N
Tiangong 3.2 18:06:59 10° SSW 18:09:01 16° S 18:09:58 14° SSE
CSL-04 Rocket 4.4 18:05:17 14° ESE 18:09:22 34° ENE 18:14:20 10° N
Cosmos 1934 Rocket 3.9 18:04:00 10° S 18:10:01 66° E 18:16:02 10° NNE
Cosmos 1908 4.2 18:08:24 10° SSW 18:12:10 49° WNW 18:15:57 10° N
NOSS 2 (A) 4.2 18:09:38 10° NW 18:12:32 65° NE 18:13:10 44° ESE
Okean O Rocket 2.1 18:09:29 10° S 18:13:47 63° WSW 18:18:09 10° NNW
Cosmos 1544 Rocket 3.5 18:09:57 10° S 18:14:20 63° E 18:18:46 10° NNE
Cosmos 2251 Rocket 3.8 18:11:52 10° NNW 18:16:56 44° ENE 18:20:00 22° ESE
Cosmos 1844 Rocket 3.1 18:13:28 10° NNW 18:18:48 43° NE 18:21:39 24° ESE
NOSS 3-1 (A) 4.1 18:14:56 10° SSE 18:19:16 26° ESE 18:20:11 25° E
ATLAS 3B R/B 3.5 18:14:17 10° WSW 18:20:39 46° NNW 18:27:20 10° NE
SL-08 RB Rocket 3.6 18:18:25 10° SSE 18:22:59 85° ENE 18:27:37 10° NNW
NOSS 8 (F) 4.4 18:21:21 10° SSW 18:24:35 46° SE 18:24:43 46° ESE
Meteor 1-4 Rocket 3.7 18:23:39 10° SSE 18:25:30 26° SSE 18:25:30 26° SSE
IRS-1C Rocket 4.0 18:23:21 10° SSE 18:28:32 64° ENE 18:33:45 10° N
Cosmos 2278 4.1 18:23:02 10° SW 18:28:41 65° WNW 18:34:23 10° NNE
Cosmos 2123 Rocket 4.2 18:22:43 10° NNW 18:29:05 77° W 18:35:22 10° S
Cosmos 407 Rocket 4.3 18:24:43 10° N 18:29:26 31° NE 18:30:24 29° ENE
Okean 1-7 Rocket 4.0 18:26:15 10° NNW 18:30:38 65° W 18:35:01 10° S
Okean-O 2.7 18:29:03 23° SE 18:31:36 53° ENE 18:35:56 10° N
HJ-1C 3.1 18:31:16 29° SSE 18:32:46 78° ENE 18:36:02 10° N
Landsat 5 4.1 18:28:58 10° N 18:33:18 63° WNW 18:37:43 10° SSW
Cosmos 2278 Rocket 3.9 18:30:43 10° N 18:34:20 17° NNE 18:35:14 16° NE
IRAS Rocket 4.1 18:29:32 10° NNE 18:35:07 74° ESE 18:40:38 10° S
Cosmos 1602 Rocket 3.4 18:32:21 10° N 18:36:44 73° E 18:40:28 14° SSE
COSMO-SKYMED 1 3.4 18:33:29 10° N 18:37:43 51° WNW 18:41:55 10° SW
Cosmos 1140 Rocket 4.2 18:34:06 10° N 18:38:47 33° NE 18:39:16 32° ENE
NOSS 2-3 (D) 3.7 18:35:37 10° SSW 18:39:32 47° ESE 18:40:05 44° E
CENTAUR R/B 4.1 18:35:02 10° NW 18:41:19 30° N 18:45:53 19° NE
SL-16 R/B 2.1 18:37:09 10° SSW 18:42:46 70° ESE 18:48:26 10° NNE
Resurs 01 Rocket 4.0 18:46:27 10° NNE 18:46:27 10° NNE 18:46:31 10° NNE
NOSS 3-1 (C) 3.2 18:39:41 10° SSW 18:44:54 63° SE 18:48:20 26° NE
Cosmos 1300 3.4 18:45:13 10° SSW 18:48:57 55° WNW 18:52:43 10° N
Meteor 2-10 Rocket 3.5 18:43:45 10° S 18:49:19 69° E 18:54:40 10° NNE
NOSS 2-3 (C) 3.5 18:48:06 10° SSW 18:52:08 63° SE 18:52:35 59° E
Cosmos 304 Rocket 3.6 18:47:40 10° SSW 18:52:25 68° ESE 18:54:51 28° NE
ATLAS 5 CENTAUR R/B 2.5 18:48:58 10° WSW 18:52:47 42° NW 18:55:23 21° NNE
Cosmos 1408 3.1 18:49:24 10° N 18:52:03 45° NNE 18:52:03 45° NNE
CZ-4C R/B 4.5 18:50:05 10° N 18:53:15 36° WNW 18:56:20 10° SW
Cosmos 2100 Rocket 4.4 18:54:32 39° E 18:54:32 39° E 19:00:16 10° NNE
Cosmos 2322 Rocket 2.0 18:51:35 10° SSW 18:57:08 69° ESE 19:00:51 22° NE
Cosmos 1825 4.0 18:53:55 10° N 18:55:17 20° NNE 18:55:17 20° NNE
Lacrosse 4 Rocket 1.6 18:53:34 10° NW 18:57:51 70° WSW 18:59:08 43° S
Cosmos 1825 Rocket 4.1 18:56:03 10° N 18:59:19 43° NNE 18:59:19 43° NNE
Cosmos 1844 3.6 18:55:40 10° NNW 19:01:28 70° ENE 19:03:00 49° ESE
Cosmos 332 Rocket 3.7 19:00:11 10° SSW 19:05:05 86° ESE 19:07:46 27° NNE
Cosmos 1758 Rocket 3.4 19:01:23 10° N 19:05:44 87° WSW 19:06:22 64° S
X-37B 2.8 19:04:17 10° WSW 19:06:02 21° SW 19:06:02 21° SW
Cosmos 2360 Rocket 2.4 19:03:28 10° S 19:08:09 50° SE 19:08:09 50° SE
Cosmos 2173 Rocket 4.4 19:12:52 42° NE 19:12:52 42° NE 19:17:33 10° NNE
DMSP B5D2-2 4.1 19:06:23 10° NNE 19:11:41 80° WNW 19:16:54 10° SSW
Cosmos 614 Rocket 4.1 19:07:47 10° NNW 19:12:51 68° WSW 19:14:50 36° S
Cosmos 1605 Rocket 4.4 19:13:29 10° SSW 19:19:42 64° WNW 19:26:03 10° N
OBJECT-B 3.8 19:23:27 10° NNW 19:23:27 10° NNW 19:23:32 10° NNW
Cosmos 2344 4.4 19:11:30 10° NW 19:20:30 77° SW 19:29:03 23° SSE
Orbus 7S? 4.1 19:17:05 10° WNW 19:25:15 64° SW 19:25:39 61° SSW
ATLAS 5 CENTAUR R/B 4.4 19:12:12 10° W 19:31:39 43° NNW 19:34:54 26° NNE
Cosmos 1980 Rocket 4.3 19:29:12 10° W 19:33:41 23° NW 19:38:12 10° NNE
USA 215 3.8 19:34:27 38° NE 19:36:27 49° N 19:42:40 10° WNW
H-2A R/B 3.2 19:34:35 10° N 19:38:27 40° WNW 19:42:20 10° SW
Cosmos 1892 4.4 19:35:20 10° NNW 19:38:23 31° W 19:38:23 31° W
CZ-4 R/B 4.1 19:40:42 10° SW 19:43:25 17° W 19:46:11 10° NW
Cosmos 1943 Rocket 4.3 19:42:16 10° N 19:44:35 15° NNE 19:44:35 15° NNE
USA 229 DEB 3.4 19:40:37 10° SW 19:47:02 87° SE 19:47:18 83° ENE
USA 229 3.4 19:40:43 10° SW 19:47:08 86° SE 19:47:19 84° E
Ariane Rocket 4.4 19:55:42 31° N 19:55:42 31° N 19:58:21 10° N
BREEZE-M R/B 4.4 19:56:30 10° W 19:58:37 29° WSW 19:58:37 29° WSW
Cosmos 1844 Rocket 3.8 19:57:32 10° NW 20:02:39 38° WSW 20:03:21 37° SW
NOSS 3-1 (A) 4.0 20:03:59 10° SW 20:07:41 45° WSW 20:07:41 45° WSW
ATLAS 3B R/B 4.3 20:07:26 10° WNW 20:13:05 27° N 20:15:21 23° NNE
Cosmos 2278 Rocket 3.6 20:14:04 10° NNW 20:17:04 31° N 20:17:04 31° N
Resurs 01 Rocket 4.4 20:24:01 13° NNW 20:24:01 13° NNW 20:24:29 10° NNW
SL-16 R/B 4.0 20:22:36 10° WSW 20:27:25 28° NW 20:30:34 17° N
NOSS 3-2 (A) 4.5 20:22:44 10° NW 20:28:33 49° N 20:28:33 49° N
CENTAUR R/B 3.6 20:26:22 10° NW 20:33:03 49° NNE 20:33:03 49° NNE
ATLAS 5 CENTAUR R/B 4.4 20:35:32 10° NW 20:36:55 15° NW 20:36:55 15° NW
Cosmos 2322 Rocket 4.0 20:36:57 10° WSW 20:41:42 27° NW 20:42:44 26° NNW
Cosmos 2360 Rocket 4.3 20:48:07 10° WSW 20:50:02 20° W 20:50:02 20° W
